ACA868 CYHZ-EGLL

Flight info

Callsign ACA868
Flight time N/A
Altitude 35000
Route IGTAS DCT NOTOP DCT ALLRY/M079F360 NATY GISTI/N0445F370 DCT DAP DCT LIFFY UL975 MALUD Q38 NUGRA
Aircraft B38M/M-SDE1FGHILORVWXY/HB1

Departure

Time 2025-12-30 00:13
Airport Halifax / Stanfield International Airport (CYHZ)

Arrival

Time N/A
Airport London Heathrow Airport (EGLL)
Time Latitude Longitude Altitude Speed Heading
2025-12-29 23:13 44.88679 -63.51391 454 ft 0 kts 260°
2025-12-29 23:54 44.88682 -63.51368 454 ft 3 kts 263°
2025-12-29 23:54 44.88684 -63.51340 454 ft 3 kts 268°
2025-12-29 23:55 44.88680 -63.51284 454 ft 3 kts 288°
2025-12-29 23:55 44.88662 -63.51253 454 ft 1 kts 350°
2025-12-29 23:59 44.88667 -63.51254 454 ft 1 kts 350°
2025-12-30 00:00 44.88694 -63.51260 458 ft 3 kts 350°
2025-12-30 00:00 44.88739 -63.51255 454 ft 4 kts 41°
2025-12-30 00:01 44.88764 -63.51183 454 ft 3 kts 78°
2025-12-30 00:01 44.88766 -63.51168 454 ft 0 kts 79°
2025-12-30 00:08 44.88744 -63.51114 454 ft 8 kts 153°
2025-12-30 00:08 44.88716 -63.51005 454 ft 7 kts 77°
2025-12-30 00:09 44.88806 -63.50844 454 ft 13 kts 36°
2025-12-30 00:09 44.89003 -63.50642 453 ft 8 kts 55°
2025-12-30 00:10 44.89002 -63.50578 453 ft 6 kts 122°
2025-12-30 00:10 44.88959 -63.50494 453 ft 5 kts 125°
2025-12-30 00:11 44.88894 -63.50426 453 ft 4 kts 213°
2025-12-30 00:11 44.88865 -63.50454 453 ft 24 kts 214°
2025-12-30 00:12 44.87840 -63.51462 454 ft 148 kts 214°
2025-12-30 00:12 44.85857 -63.53513 1387 ft 186 kts 206°
2025-12-30 00:13 44.83867 -63.55671 2938 ft 188 kts 210°
2025-12-30 00:13 44.80020 -63.57853 4182 ft 227 kts 166°
2025-12-30 00:14 44.78634 -63.56615 4630 ft 249 kts 137°
2025-12-30 00:14 44.77458 -63.51797 5875 ft 278 kts 104°
2025-12-30 00:15 44.76795 -63.43370 7465 ft 300 kts 103°
2025-12-30 00:15 44.76851 -63.40379 8040 ft 316 kts 78°
2025-12-30 00:16 44.79659 -63.35539 9159 ft 333 kts 42°
2025-12-30 00:16 44.82963 -63.30885 10294 ft 340 kts 46°
2025-12-30 00:17 44.86401 -63.25868 10672 ft 375 kts 46°
2025-12-30 00:17 44.92062 -63.17587 12027 ft 397 kts 45°
2025-12-30 00:18 44.93962 -63.14812 12646 ft 399 kts 45°
2025-12-30 00:18 44.97854 -63.09120 13775 ft 408 kts 45°
2025-12-30 00:19 45.01813 -63.03317 14968 ft 412 kts 45°
2025-12-30 00:19 45.03805 -63.00392 15571 ft 414 kts 45°
2025-12-30 00:19 45.07708 -62.94359 16782 ft 419 kts 56°
2025-12-30 00:20 45.12180 -62.83597 18498 ft 424 kts 59°
2025-12-30 00:21 45.15154 -62.76296 19359 ft 432 kts 59°
2025-12-30 00:21 45.18178 -62.68845 20197 ft 440 kts 59°
2025-12-30 00:22 45.21249 -62.61258 21018 ft 447 kts 59°
2025-12-30 00:22 45.24363 -62.53542 21829 ft 454 kts 59°
2025-12-30 00:23 45.27517 -62.45705 22615 ft 461 kts 59°
2025-12-30 00:23 45.30711 -62.37746 23306 ft 467 kts 59°
2025-12-30 00:24 45.33943 -62.29669 23920 ft 473 kts 59°
2025-12-30 00:24 45.37201 -62.21502 24582 ft 477 kts 59°
2025-12-30 00:24 45.38839 -62.17390 24954 ft 478 kts 59°
2025-12-30 00:27 45.56611 -61.82275 27651 ft 496 kts 46°
2025-12-30 00:28 45.72454 -61.55647 29590 ft 510 kts 46°
2025-12-30 00:31 45.95575 -61.16324 32089 ft 517 kts 45°
2025-12-30 00:33 46.11608 -60.88724 33948 ft 512 kts 44°
2025-12-30 00:35 46.29628 -60.57372 34722 ft 505 kts 44°
2025-12-30 00:37 46.47455 -60.26004 34733 ft 500 kts 44°
2025-12-30 00:39 46.65024 -59.94738 34716 ft 498 kts 44°
2025-12-30 00:41 46.82425 -59.63416 34714 ft 494 kts 45°
2025-12-30 00:43 46.98923 -59.33388 34716 ft 494 kts 45°
2025-12-30 00:45 47.15944 -59.02059 34724 ft 488 kts 45°
2025-12-30 00:47 47.32678 -58.70907 34730 ft 483 kts 45°
2025-12-30 00:49 47.49176 -58.39843 34727 ft 476 kts 45°
2025-12-30 00:50 47.63298 -58.12969 34727 ft 473 kts 45°
2025-12-30 00:52 47.79243 -57.82305 34732 ft 468 kts 45°
2025-12-30 00:55 47.96925 -57.47893 34737 ft 464 kts 46°
2025-12-30 00:56 48.10529 -57.21116 34744 ft 462 kts 46°
2025-12-30 00:59 48.27811 -56.86717 34739 ft 460 kts 45°
2025-12-30 01:00 48.41185 -56.59792 34730 ft 459 kts 46°
2025-12-30 01:03 48.60182 -56.21079 34748 ft 458 kts 46°
2025-12-30 01:05 48.73313 -55.93994 34725 ft 456 kts 46°
2025-12-30 01:07 48.89989 -55.59199 34752 ft 452 kts 49°
2025-12-30 01:09 49.02819 -55.32119 34732 ft 451 kts 50°
2025-12-30 01:11 49.19199 -54.97142 34732 ft 450 kts 52°
2025-12-30 01:13 49.31855 -54.69802 34708 ft 450 kts 53°
2025-12-30 01:15 49.46294 -54.38262 34697 ft 452 kts 56°
2025-12-30 01:17 49.60722 -54.06372 34686 ft 455 kts 58°
2025-12-30 01:19 49.75018 -53.74389 34666 ft 450 kts 59°
2025-12-30 01:21 49.89134 -53.42426 34645 ft 448 kts 60°
2025-12-30 01:23 50.03100 -53.10420 34638 ft 448 kts 61°